Wind_Speed
25 23 19 15 13 10 8 8 8 3 5 5 5 7 6 8 10 11 13 16 20 22 23 22 18 15 13 13 12 12 12 12 12
27 26 22 18 15 13 10 11 10 4 5 7 6 7 7 7 9 12 14 17 21 26 27 25 20 16 15 15 15 13 12 13 14
30 28 25 20 16 15 14 13 12 6 6 7 7 8 8 7 9 11 12 17 22 27 27 24 23 18 14 15 16 16 15 13 13
32 30 27 22 19 18 17 16 13 9 8 9 8 9 9 8 8 11 12 17 21 25 25 24 23 21 17 15 15 17 17 15 13
34 31 29 24 22 21 19 18 15 13 10 11 11 12 10 9 9 10 11 15 19 22 22 22 21 21 20 17 15 15 16 15 13
36 33 31 25 24 22 22 20 18 15 13 13 14 14 12 10 9 10 11 13 16 20 20 22 21 20 19 18 16 13 13 14 13
37 35 32 27 26 24 23 23 20 17 15 14 17 16 14 12 11 10 11 12 15 18 18 20 21 21 19 17 17 16 13 11 10
39 36 33 29 28 25 24 24 22 20 18 17 19 18 17 14 12 10 11 12 13 15 16 16 19 20 21 18 15 15 15 14 13
42 39 35 30 29 27 26 24 23 22 19 18 20 19 19 16 13 11 11 13 13 15 16 16 17 18 19 20 16 13 12 13 14
44 41 36 33 32 29 27 25 23 22 19 19 21 21 19 16 14 12 13 14 14 15 16 16 16 18 18 18 17 15 14 13 14
46 42 38 35 34 30 28 25 24 21 19 21 20 19 16 15 13 12 13 16 16 15 16 16 15 18 20 19 17 16 17 19 19
48 44 41 37 35 31 30 26 25 21 19 21 18 15 14 13 12 13 15 16 16 16 16 15 16 18 19 21 21 20 19 21 22
49 46 43 39 36 34 32 27 25 21 19 21 15 16 13 12 12 13 15 16 16 17 17 17 19 20 20 21 22 22 23 25 26
49 48 45 40 38 37 33 30 26 23 21 20 18 17 15 14 12 14 15 16 17 17 18 19 21 23 22 21 22 24 24 27 29
52 49 45 42 40 38 35 31 28 25 24 22 19 19 19 17 16 16 16 18 19 19 20 21 23 24 23 23 23 25 27 30 32
53 50 48 44 42 41 39 32 31 28 26 24 22 22 21 21 20 20 21 21 21 22 23 23 24 25 26 26 28 28 30 31 33
51 51 49 49 45 42 38 35 34 31 29 27 24 26 22 23 23 24 24 25 24 24 25 27 27 28 29 29 30 31 31 33 36
53 54 54 48 46 44 42 37 37 34 33 30 27 28 26 25 26 28 26 28 28 26 26 28 29 32 34 35 35 34 36 38 39
55 52 52 52 49 45 44 41 39 36 35 33 32 31 30 28 30 31 28 30 30 27 28 29 30 31 33 36 38 37 38 39 39
53 55 53 52 51 49 46 44 42 40 38 36 35 34 33 31 33 33 32 32 30 29 30 30 30 31 33 35 37 38 39 41 43
Wind_Direction
218 216 216 222 222 220 220 216 219 227 300 327 350 323 345 3 13 14 14 8 1 354 345 333 317 302 294 286 278 268 259 255 255
217 214 218 222 221 221 220 221 223 205 275 303 321 320 333 347 2 360 6 1 357 355 350 343 330 308 284 280 278 270 264 259 254
217 212 217 218 219 222 224 222 227 210 253 282 302 314 326 334 347 354 355 360 358 358 355 354 346 332 302 280 278 277 268 263 262
215 213 216 216 216 220 222 224 229 227 241 266 290 300 316 326 337 349 349 360 359 1 360 359 360 352 335 304 284 279 274 267 264
215 215 217 214 216 219 222 225 233 236 248 267 281 288 304 318 326 336 341 355 356 1 360 359 2 3 358 344 314 295 284 276 268
214 215 219 216 216 219 225 228 232 238 248 263 279 283 296 309 313 324 333 350 354 356 358 353 357 358 2 1 349 327 300 287 279
215 216 220 217 219 218 225 232 231 237 247 262 273 278 288 297 300 315 325 341 345 350 353 348 349 356 354 356 356 350 338 318 299
217 218 219 218 221 220 226 231 231 236 243 257 268 276 286 290 294 303 315 329 334 339 342 346 343 347 350 346 347 347 340 334 327
216 218 219 220 222 221 226 230 232 234 241 252 267 274 281 284 287 294 302 313 324 327 333 334 339 339 342 344 337 335 331 329 328
217 217 218 219 222 222 228 228 233 235 242 252 263 271 275 277 283 289 296 303 309 318 325 326 329 333 334 337 337 329 326 326 323
218 217 217 219 223 224 229 227 231 235 246 257 263 270 268 273 279 287 293 295 303 310 317 318 320 326 326 327 328 323 323 326 325
218 218 218 220 223 224 228 226 230 236 246 255 257 261 264 272 282 289 294 296 300 307 308 313 315 318 320 322 326 321 316 320 320
217 218 219 221 222 225 226 224 228 234 241 247 248 255 260 273 286 295 295 295 299 302 304 308 314 317 316 317 320 326 319 318 318
218 219 220 220 221 225 224 223 225 226 233 243 248 257 263 272 291 298 300 297 297 300 300 303 308 313 310 312 315 316 317 318 318
219 219 220 222 222 225 226 223 226 224 230 240 248 257 264 274 284 291 299 298 299 295 294 298 301 308 308 306 308 309 312 314 315
219 219 222 223 224 224 225 223 228 226 232 240 248 256 264 273 280 289 293 299 300 295 293 293 295 301 302 301 304 306 308 311 314
219 222 222 223 225 226 224 224 227 229 235 242 248 256 262 272 279 283 290 297 300 301 296 292 291 293 296 298 301 304 306 310 312
220 223 222 222 227 227 227 226 230 232 237 243 251 256 262 269 275 280 286 293 299 303 299 296 295 293 293 295 297 301 304 307 309
220 221 222 224 225 228 229 230 232 235 239 245 251 257 264 269 273 278 285 289 296 299 300 301 299 299 300 300 301 303 305 306 307
219 222 222 224 226 229 233 233 235 237 240 245 251 257 262 267 271 276 282 286 291 295 300 301 302 302 302 302 304 305 307 306 308
Height
5857 5861 5863 5866 5866 5867 5869 5870 5869 5868 5868 5868 5868 5869 5868 5867 5866 5863 5861 5860 5859 5858 5857 5855 5854 5853 5852 5851 5850 5849 5849 5849 5849
5853 5857 5861 5864 5865 5867 5867 5868 5867 5867 5868 5868 5867 5868 5868 5867 5864 5864 5862 5860 5858 5856 5854 5852 5850 5849 5848 5848 5848 5847 5846 5846 5847
5850 5853 5858 5860 5862 5865 5866 5866 5866 5867 5868 5867 5866 5866 5866 5865 5864 5862 5861 5859 5857 5855 5853 5850 5848 5846 5845 5845 5845 5845 5844 5844 5845
5847 5850 5855 5857 5859 5863 5864 5864 5863 5866 5866 5866 5866 5865 5864 5864 5863 5861 5861 5858 5857 5854 5852 5850 5848 5846 5844 5843 5843 5843 5843 5842 5842
5844 5848 5852 5852 5855 5859 5861 5862 5861 5864 5863 5864 5865 5865 5863 5862 5861 5860 5859 5857 5856 5853 5852 5850 5848 5846 5844 5842 5841 5840 5841 5840 5839
5840 5845 5849 5849 5852 5855 5858 5859 5859 5861 5861 5861 5863 5863 5861 5861 5859 5859 5859 5856 5855 5853 5852 5851 5848 5846 5844 5843 5841 5840 5839 5839 5838
5836 5841 5845 5846 5849 5850 5854 5856 5857 5858 5859 5859 5862 5861 5860 5859 5858 5857 5857 5855 5855 5853 5850 5850 5849 5846 5844 5842 5841 5841 5840 5839 5838
5833 5837 5840 5842 5846 5847 5851 5853 5854 5854 5855 5856 5858 5859 5858 5857 5856 5855 5855 5855 5853 5851 5850 5848 5848 5846 5844 5843 5841 5840 5840 5840 5839
5827 5832 5835 5838 5842 5843 5847 5848 5850 5851 5852 5852 5855 5856 5855 5855 5853 5853 5853 5853 5852 5852 5850 5849 5847 5845 5844 5843 5841 5840 5839 5838 5838
5822 5826 5829 5834 5837 5839 5843 5844 5846 5847 5848 5849 5851 5852 5852 5852 5851 5851 5851 5851 5849 5849 5849 5848 5846 5844 5843 5842 5841 5840 5839 5838 5837
5817 5821 5824 5828 5833 5835 5839 5840 5841 5843 5845 5846 5847 5848 5849 5849 5848 5847 5847 5848 5847 5846 5846 5845 5844 5842 5841 5840 5839 5838 5838 5836 5835
5811 5815 5819 5823 5828 5830 5835 5836 5837 5838 5841 5843 5843 5844 5846 5845 5845 5844 5844 5844 5844 5843 5842 5842 5841 5840 5838 5837 5836 5835 5834 5833 5832
5804 5809 5814 5818 5822 5826 5829 5831 5833 5834 5836 5839 5839 5842 5842 5843 5841 5842 5841 5841 5841 5840 5840 5839 5839 5837 5836 5835 5833 5831 5830 5829 5828
5797 5804 5808 5813 5816 5821 5823 5825 5828 5830 5832 5834 5835 5838 5839 5839 5837 5839 5838 5837 5837 5836 5837 5836 5835 5834 5832 5831 5830 5828 5826 5824 5823
5791 5797 5802 5807 5811 5815 5817 5820 5823 5825 5828 5830 5830 5832 5835 5834 5833 5835 5834 5833 5832 5832 5833 5832 5831 5830 5829 5827 5825 5823 5821 5819 5818
5784 5791 5797 5802 5805 5808 5811 5815 5818 5820 5822 5825 5825 5828 5829 5830 5829 5829 5830 5829 5828 5827 5827 5827 5827 5826 5824 5822 5820 5818 5816 5814 5812
5777 5785 5790 5794 5799 5803 5806 5808 5811 5814 5817 5819 5819 5823 5824 5824 5824 5824 5824 5823 5824 5823 5822 5822 5821 5820 5819 5817 5815 5812 5809 5807 5804
5770 5777 5782 5787 5793 5797 5799 5802 5805 5808 5812 5813 5815 5817 5817 5818 5818 5819 5818 5818 5818 5817 5816 5816 5816 5815 5813 5812 5809 5806 5803 5800 5796
5762 5769 5775 5780 5784 5789 5793 5796 5799 5802 5805 5807 5808 5811 5811 5811 5813 5813 5811 5812 5812 5811 5810 5810 5809 5808 5807 5805 5803 5800 5798 5794 5791
5753 5760 5765 5771 5776 5781 5786 5790 5792 5794 5797 5799 5801 5804 5805 5805 5806 5805 5805 5805 5805 5804 5802 5802 5801 5800 5799 5797 5796 5793 5790 5788 5785